SCP
0 0 0 0 0 0 0 0 0 0 0 0 0 0 0 0 0 0 0 0 0 0 0 0 0 0 0 0 0 0 0 0 0 0 0 0 0 0 0 0 0 0 0 0
0 0 0 0 0 0 0 0 0 0 0 0 0 0 0 0 0 0 0 0 0 0 0 0 0 0 0 0 0 0 0 0 0 0 0 0 0 0 0 0 0 0 0 0
0 0 0 0 0 0 0 0 0 0 0 0 0 0 0 0 0 0 0 0 0 0 0 0 0 0 0 0 0 0 0 0 0 0 0 0 0 0 0 0 0 0 0 0
0 0 0 0 0 0 0 0 0 0 0 0 0 0 0 0 0 0 0 0 0 0 0 0 0 0 0 0 0 0 0 0 0 0 0 0 0 0 0 0 0 0 0 0
0 0 0 0 0 0 0 0 0 0 0 0 0 0 0 0 0 0 0 0 0 0 0 0 0 0 0 0 0 0 0 0 0 0 0 0 0 0 0 0 0 0 0 0
0 0 0 0 0 0 0 0 0 0 0 0 0 0 0 -0 0 0 0 0 0 0 0 0 0 0 0 0 0 0 0 0 0 0 0 0 0 0 0 0 0 0 0 0
0 0 0 0 0 0 0 0 0 0 0 0 0 0 0 0 0 0 0 0 0 0 0 0 0 0 0 0 0 0 0 0 0 0 0 0 0 0 0 0 0 0 0 0
0 0 0 0 0 0 0 0 0 0 0 0 0 0 0 0 0 0 0 0 0 0 0 0 0 0 0 0 0 0 0 0 0 0 0 0 0 0 0 0 0 0 0 0
0 0 0 0 0 0 0 0 0 0 0 0 0 0 0 0 0 0 0 0 0 0 0 0 0 0 0 0 0 0 0 0 0 0 0 0 0 0 0 0 0 0 0 0
0 0 0 0 0 0 0 0 0 0 0 0 0 0 0 0 0 0 0 0 0 0 0 0 0 0 0 0 0 0 0 0 0 0 0 0 0 0 0 0 0 0 0 0
0 0 0 0 0 0 0 0 0 0 0 0 0 0 0 0 0 0 0 0 0 0 0 0 0 0 0 0 0 0 0 0 0 0 0 0 0 0 0 0 0 0 0 0
0 0 0 0 0 0 0 0 0 0 0 0 0 0 0 0 0 0 0 0 0 0 0 0 0 0 0 0 0 0 0 0 0 0 0 0 0 0 0 0 0 0 0 0
0 0 0 0 0 0 0 0 0 0 0 0 0 0 0 0 0 0 0 0 0 0 0 0 0 0 0 0 0 0 0 0 0 0 0 0 0 0 0 0 0 0 0 0
0 0 0 0 0 0 0 0 0 0 0 0 0 0 0 0 0 0 0 0 0 0 0 0 0 0 0 0 0 0 0 0 0 0 0 0 0 0 0 0 0 0 0 0
0 0 0 0 0 0 0 0 0 0 0 0 0 0 0 0 0 0 0 0 0 0 0 0 0 0 0 0 0 0 0 0 0 0 0 0 0 0 0 0 0 0 0 0
0 0 0 0 0 0 0 0 0 0 0 0 0 0 0 0 0 0 0 0 0 -0 0 0 0 0 0 0 0 0 0 0 0 0 0 0 0 0 0 0 0 0 0 0
0 0 0 0 0 0 0 0 0 0 0 0 0 0 0 0 0 0 0 -0 -0 -0 0 0 0 0 0 0 0 0 0 0 0 0 0 0 0 0 0 0 0 0 0 0
0 0 0 0 0 0 0 0 0 0 0 0 0 0 0 0 0 0 0 0 0 0 0 0 0 0 0 0 0 0 0 0 0 0 0 0 0 0 0 0 0 0 0 0
0 0 0 0 0 0 0 0 0 0 0 0 0 0 0 0 0 0 0 0 0 0 0 0 0 0 0 0 0 0 0 0 0 0 0 0 0 0 0 0 0 0 0 0
0 0 0 0 0 0 0 0 0 0 0 0 0 0 0 0 0 0 0 0 0 0 0 0 0 0 0 0 0 0 0 0 0 0 0 0 0 0 0 0 0 0 0 0
0 0 0 0 0 0 0 0 0 0 0 0 0 0 0 0 0 0 0 0 0 0 0 0 0 0 0 0 0 0 0 0 0 0 0 0 0 0 0 0 0 0 0 0
0 0 0 0 0 0 0 0 0 0 0 0 0 0 0 0 0 0 0 0 0 0 0 0 0 0 0 0 0 0 0 0 0 0 0 0 0 0 0 0 0 0 0 0
-0 -0 0 0 -0 -0 -0 0 0 0 0 0 0 0 0 0 0 0 0 0 0 0 0 0 0 0 0 0 0 0 0 0 0 0 0 0 0 0 0 0 0 0 0 0
-0 -0 -0 -0 -0 -0 0 0 0 0 0 0 0 0 0 0 0 0 0 0 0 0 0 0 0 0 0 0 0 0 0 0 0 0 0 0 0 0 0 0 0 0 0 0
-0 -0 -0 0 0 0 0 0 0 0 0 0 0 0 0 0 0 0 0 0 0 0 0 0 0 0 0 0 0 0 0 0 0 0 0 0 0 0 0 0 0 0 0 0
-0 -0 0 0 0 0 0 0 0 0 0 0 0 0 0 0 0 0 0 0 0 0 0 0 0 0 0 0 0 0 0 0 0 0 0 0 0 0 0 0 0 0 0 0
0 0 0 0 0 0 0 0 0 0 0 0 0 0 0 0 0 0 0 0 0 0 0 0 0 0 0 0 0 0 0 0 0 0 0 0 0 0 0 0 0 0 0 0
Wind_Speed
7 6 5 7 9 8 10 9 10 10 10 12 8 6 5 4 3 3 3 3 4 4 4 4 4 4 3 3 3 3 3 4 4 3 3 3 3 3 3 3 4 4 4 4
5 5 5 8 10 11 11 10 11 10 13 8 5 3 3 4 3 3 4 5 5 5 5 5 5 5 4 4 4 3 4 4 3 3 3 3 3 3 3 3 3 3 4 4
5 3 3 9 10 11 8 8 8 12 12 5 3 5 5 5 4 4 5 5 6 6 6 6 5 5 4 4 3 3 4 4 3 3 3 3 3 3 4 4 3 3 4 4
2 1 8 8 2 6 8 8 8 7 6 4 5 4 3 3 3 4 4 5 6 6 6 5 4 4 3 3 3 3 3 3 3 3 3 3 3 4 4 3 3 4 4 5
3 4 9 8 3 4 5 7 6 7 7 5 3 2 4 2 1 3 4 5 6 6 5 4 4 3 2 3 3 3 3 4 3 3 3 3 4 4 3 3 3 4 4 4
3 4 9 7 2 2 2 6 4 4 5 4 1 2 4 3 3 4 5 4 5 5 4 4 4 2 2 3 2 3 4 4 3 3 4 4 4 4 3 3 3 3 3 3
6 6 9 6 2 2 3 6 1 2 3 2 3 4 3 4 4 4 4 5 4 4 3 4 3 2 2 3 4 4 3 3 3 3 3 3 3 3 2 2 2 3 3 3
5 6 10 3 4 5 5 1 0 1 1 2 3 3 3 3 4 4 4 5 4 4 4 4 3 2 2 3 4 3 3 3 3 2 2 2 2 2 2 2 3 3 3 3
9 9 4 3 4 3 1 1 1 1 1 1 2 3 3 3 4 4 4 4 4 4 4 5 4 3 3 4 4 3 2 3 3 2 1 1 2 2 2 3 3 3 3 3
5 7 5 3 2 2 1 1 1 1 1 1 2 3 3 4 4 3 4 4 3 4 4 5 5 4 4 4 3 2 3 3 3 2 2 1 1 2 2 3 3 3 3 3
7 6 4 4 4 3 2 1 1 1 1 2 2 3 3 3 4 3 4 3 3 3 4 5 5 5 5 4 3 3 3 3 3 2 2 1 1 2 2 3 4 4 4 4
8 5 5 4 2 1 1 2 2 2 2 2 1 3 3 3 3 3 4 3 4 4 4 5 4 5 5 4 3 3 3 3 2 2 2 1 1 2 3 3 5 6 6 5
4 3 2 2 1 0 1 1 1 1 1 2 2 1 2 2 2 3 3 4 4 4 5 5 4 4 5 4 4 3 3 3 2 2 2 2 2 2 2 3 4 5 5 5
2 1 1 2 1 0 0 1 1 1 1 1 1 2 2 2 3 3 4 4 4 4 4 4 4 5 5 5 4 4 3 3 3 2 2 2 2 2 2 2 2 3 4 5
1 1 2 0 1 2 2 1 1 2 2 2 1 2 2 2 3 4 5 4 4 4 4 4 5 5 5 4 4 4 3 3 2 2 2 2 2 2 2 2 2 2 2 3
1 1 1 0 0 1 1 1 1 2 2 2 2 3 3 3 3 4 4 3 3 4 5 4 5 5 5 4 4 3 3 5 4 2 2 2 1 1 2 2 2 2 2 2
2 1 1 2 2 1 1 1 2 2 2 2 3 3 3 3 3 4 4 3 3 4 4 4 5 5 5 4 3 3 3 3 5 3 2 2 2 2 2 1 2 2 2 3
2 2 2 3 2 2 2 1 1 1 2 2 2 2 2 2 3 4 4 4 4 4 4 5 5 5 4 4 3 3 3 3 2 2 2 2 2 1 1 1 2 2 2 3
0 0 0 1 1 1 1 2 2 2 2 2 2 2 2 3 3 3 3 3 3 4 5 5 8 5 4 5 5 2 2 2 2 2 2 3 3 2 2 1 2 2 2 2
1 1 1 1 1 0 1 1 1 1 2 1 1 2 2 3 3 3 3 3 3 4 5 6 5 4 4 5 5 2 2 2 2 2 2 2 2 2 2 2 2 2 2 2
0 0 0 0 1 1 1 1 1 1 2 1 1 2 3 3 3 2 2 3 4 5 5 6 4 3 3 4 4 2 2 2 2 2 2 2 2 2 2 2 2 2 2 2
1 1 0 0 0 1 1 1 1 1 1 1 2 2 2 3 3 3 2 3 4 7 4 3 3 5 5 4 2 2 2 2 2 2 2 2 2 2 2 2 2 2 2 2
1 1 1 1 1 1 2 1 1 1 2 2 2 2 2 3 2 2 4 3 4 6 4 3 6 8 7 3 2 2 2 2 2 2 3 2 2 2 2 2 2 2 2 2
1 1 1 0 0 0 1 2 2 2 2 3 3 3 2 2 2 2 3 6 8 7 3 6 8 8 6 2 2 2 2 2 3 2 3 2 2 2 2 2 2 2 2 3
1 1 1 1 1 1 2 2 2 2 2 2 3 3 2 2 3 3 3 4 7 6 3 6 8 8 4 2 2 2 2 3 3 2 2 2 2 2 2 2 2 3 3 3
1 1 2 2 2 2 2 1 2 2 2 2 3 3 3 2 2 3 3 3 4 5 4 3 4 4 3 3 3 3 3 4 4 3 3 3 3 3 3 3 4 3 3 3
1 1 1 1 1 2 2 2 2 3 3 3 3 3 3 3 3 3 3 3 3 3 3 3 3 3 3 3 3 3 3 3 3 3 3 3 3 3 3 4 3 3 3 4
Wind_Direction
252 258 234 240 236 215 215 220 225 246 251 263 259 251 257 259 259 264 278 285 281 276 273 275 274 273 268 266 258 232 215 220 228 228 226 224 224 224 223 220 219 211 203 207
266 253 248 260 247 230 231 231 239 257 266 265 272 262 267 262 249 257 273 281 284 285 286 281 268 265 267 263 255 238 223 227 228 221 220 220 221 220 221 222 220 208 206 206
260 282 309 264 236 217 220 217 211 237 253 270 274 273 265 258 249 259 272 282 285 284 278 279 273 267 258 261 259 239 235 233 227 217 219 223 219 215 218 219 217 216 211 213
254 342 242 246 210 204 219 242 232 242 259 261 255 274 287 270 254 279 290 291 289 288 287 285 280 275 267 264 249 239 246 239 232 222 222 222 214 218 221 220 219 221 217 218
199 238 269 282 239 187 203 258 236 233 254 265 277 305 296 270 268 275 282 283 284 285 287 289 283 273 272 273 255 244 253 248 239 227 225 222 223 226 223 223 230 230 224 216
193 220 245 258 242 208 135 274 250 217 250 264 241 262 275 302 315 305 302 298 298 303 309 304 299 280 266 278 276 260 264 264 251 235 225 226 228 228 227 229 235 239 242 233
219 237 261 264 244 131 187 251 260 212 241 215 205 227 269 313 318 312 313 317 321 324 320 311 312 298 274 285 282 288 294 289 265 245 239 236 230 224 217 225 232 237 245 249
194 218 253 228 138 188 227 276 239 250 249 221 238 271 294 309 313 317 324 330 335 335 329 330 330 323 304 298 305 311 309 299 279 258 251 250 226 224 216 212 220 231 242 254
197 216 242 187 203 233 224 221 244 215 260 244 257 274 287 301 305 311 316 322 330 329 330 334 338 333 310 310 318 318 322 311 304 293 271 252 222 219 214 209 214 225 228 240
246 258 256 255 265 285 280 235 245 234 254 242 256 277 284 293 302 308 315 318 324 326 325 326 332 331 316 317 322 325 319 315 311 305 293 278 246 222 217 216 217 228 232 238
251 269 290 270 241 244 253 298 305 295 266 256 263 281 282 290 297 300 309 314 316 312 310 314 325 326 324 328 332 325 314 311 309 300 284 280 265 242 236 236 227 228 231 231
234 229 214 244 227 206 203 257 269 275 297 312 278 276 291 297 301 305 311 313 313 313 312 313 321 322 326 329 328 319 316 315 307 296 285 275 263 286 276 269 264 258 253 248
244 256 233 242 260 229 215 264 308 289 276 297 307 290 293 298 310 317 317 317 311 310 310 313 319 321 325 326 324 315 305 306 302 297 288 276 269 260 281 294 285 279 272 266
270 280 257 247 245 350 76 27 21 7 343 312 305 320 321 317 321 322 315 312 314 319 318 319 322 322 324 326 324 320 314 302 308 305 297 282 269 266 262 261 282 295 297 289
282 246 222 262 49 41 40 46 35 353 338 337 338 329 322 317 314 313 314 320 329 330 327 328 325 321 325 326 325 323 319 314 314 308 300 290 279 274 271 263 264 280 302 301
277 48 77 103 276 342 19 11 311 301 313 320 321 316 311 306 306 312 319 327 331 323 320 320 318 319 322 325 325 321 311 312 323 314 306 301 289 278 277 279 278 270 270 281
154 244 257 261 263 277 262 258 258 276 295 300 303 310 318 326 325 322 323 323 313 307 311 318 317 320 321 323 322 319 319 317 324 328 321 312 301 287 285 285 287 290 288 285
199 215 218 218 228 247 273 281 269 280 283 286 301 315 318 315 307 308 316 324 328 329 328 325 322 326 326 327 324 322 324 324 325 324 324 318 314 305 293 288 285 289 302 304
139 182 208 211 202 203 243 272 282 289 295 299 302 304 304 300 296 300 312 325 331 327 321 316 325 338 329 323 330 319 321 325 327 327 322 316 326 334 325 312 300 293 293 300
86 82 88 59 51 155 252 278 284 291 290 285 291 304 309 307 307 310 314 310 301 295 300 311 322 324 319 315 328 325 323 321 319 317 317 317 316 318 318 313 309 304 301 299
208 137 89 64 0 323 269 258 252 272 288 284 271 280 291 300 303 302 307 312 312 312 313 322 331 318 313 318 325 340 333 322 314 308 307 310 311 313 314 312 310 309 308 306
200 196 220 213 255 312 311 302 275 278 295 301 296 294 300 306 311 309 287 281 296 317 330 318 317 319 329 340 348 339 329 324 320 316 313 312 309 307 309 311 309 308 309 307
202 199 202 213 239 280 313 318 298 281 282 283 287 290 289 288 294 301 304 303 304 316 330 314 317 324 336 357 345 327 318 315 314 312 310 306 301 299 299 302 302 303 303 300
185 195 216 222 156 241 300 298 298 291 282 280 275 271 273 289 296 284 278 302 315 322 323 315 324 328 343 358 331 319 311 306 301 302 305 303 301 301 299 298 299 300 296 293
186 181 174 184 218 246 260 280 299 297 297 297 295 290 280 264 266 285 293 298 309 323 320 319 325 330 341 325 311 301 296 290 291 295 295 301 302 299 296 295 293 292 291 287
188 211 225 238 244 245 248 257 271 279 287 295 301 298 295 290 283 286 291 297 301 315 321 313 313 320 319 307 300 295 292 297 305 303 291 288 288 288 289 291 289 285 284 284
202 219 237 268 261 248 250 254 259 268 271 273 284 289 292 298 300 300 300 302 306 306 303 303 304 302 301 300 300 298 294 292 290 287 284 282 282 281 281 282 284 286 286 285